Wind_Speed
19 19 19 19 19 19 18 17 17 18 17 17 17 16 15 14 13 14 14 14 15 16 17 17 18 19 19 20 21 24 27 26 26 22 21 21 19 18 19 17 14 18 19 14 12 12 12 14 15 17 14 11 10 9 12 12 9 8 7 9 10 10 12 11 13 12 11 10 5 5 4 4 4 6 6 5 9 9 10 13 2 5 8 19 25 32 32 32
18 18 19 19 19 18 18 17 17 17 17 17 17 17 16 15 14 13 15 14 15 15 16 17 17 19 19 21 22 24 26 26 25 25 28 26 21 20 22 20 17 16 15 13 14 14 13 13 14 15 12 9 9 10 12 11 11 9 7 9 10 11 12 13 15 15 15 15 8 8 3 1 3 5 4 5 8 9 10 12 8 15 14 22 26 31 30 30
18 18 18 18 18 18 18 17 17 17 17 17 17 17 17 17 15 14 14 14 14 15 15 16 17 18 20 22 23 23 24 24 23 20 21 22 23 25 24 22 20 19 17 15 15 16 15 15 16 15 12 10 9 12 13 11 11 11 9 9 11 13 15 15 17 18 18 13 5 4 6 3 6 5 4 4 7 9 10 10 10 18 17 21 22 25 27 26
18 18 18 18 18 18 18 17 17 17 16 17 18 18 17 17 17 15 14 14 14 15 15 15 16 18 19 21 23 22 21 20 13 3 6 12 19 22 24 23 21 21 19 18 17 17 17 17 16 15 13 11 11 13 13 12 10 9 11 11 12 14 15 18 19 20 15 7 8 4 3 5 6 5 7 8 8 9 9 12 11 20 20 21 20 20 22 21
18 18 18 18 18 18 18 18 17 17 16 16 16 17 17 18 17 16 15 14 14 14 14 15 16 17 18 21 22 20 15 9 1 9 9 9 11 14 17 19 21 20 17 17 18 18 18 17 16 15 12 11 12 13 13 16 12 9 14 15 16 16 14 18 19 15 10 6 8 11 5 3 5 8 8 9 9 9 8 11 14 23 22 22 21 19 20 18
19 19 19 19 18 18 18 18 18 17 17 16 16 16 16 17 17 17 17 15 13 13 13 14 16 17 18 20 21 17 11 5 3 7 6 4 4 7 8 10 15 16 15 16 17 17 16 15 15 13 11 12 14 15 14 17 15 10 13 17 18 19 17 16 14 8 6 9 9 10 9 4 9 9 6 9 10 12 10 7 8 25 23 23 22 19 20 19
20 20 19 19 19 19 19 18 18 17 17 17 16 16 16 16 17 17 17 16 14 12 13 14 15 17 18 20 19 15 11 12 16 9 6 3 0 2 3 6 10 13 15 17 17 16 15 15 15 13 12 13 14 16 16 17 18 14 13 16 17 19 21 20 13 6 4 9 9 9 11 10 14 10 6 11 11 15 10 9 7 23 24 24 23 20 20 21
20 20 20 20 19 19 19 18 18 18 17 18 17 16 16 16 16 16 16 16 14 13 12 13 15 16 17 17 14 11 9 17 21 13 7 3 2 1 3 8 11 14 16 19 18 16 15 16 16 13 12 13 13 16 17 16 17 17 15 15 15 17 20 20 16 10 5 6 9 11 13 13 13 9 9 13 11 13 3 14 13 18 18 20 22 21 19 19
21 21 21 21 20 19 19 18 18 18 17 18 18 17 16 15 16 16 16 15 15 14 12 12 14 15 16 14 11 9 11 16 10 9 6 3 4 4 7 10 13 17 18 20 20 19 16 14 17 15 12 13 14 16 18 16 13 15 17 16 15 17 18 17 18 16 9 7 10 12 15 13 12 10 12 15 12 11 9 21 17 14 12 13 16 18 17 17
21 21 21 21 21 20 20 19 18 18 18 18 18 17 16 15 15 16 16 15 14 15 12 11 12 14 15 13 12 10 10 11 4 7 5 4 4 5 8 9 9 15 18 19 21 21 17 14 16 14 13 13 13 15 17 16 12 13 17 18 19 19 17 16 17 18 13 10 12 13 14 14 13 12 11 13 13 13 8 20 18 15 13 11 12 13 11 9
21 21 22 21 21 21 20 20 19 18 19 18 18 18 17 16 16 15 15 15 14 15 13 12 11 13 16 14 11 11 10 8 2 2 4 5 7 8 10 9 6 11 15 17 21 22 21 19 16 11 10 11 13 16 16 17 15 14 17 17 20 20 18 18 15 13 11 10 14 14 15 14 14 14 13 14 12 16 14 16 18 16 13 12 12 8 7 9
20 21 21 21 21 21 20 20 20 19 19 19 18 18 18 18 17 15 15 15 15 14 14 14 11 12 17 15 13 17 23 23 18 17 14 11 13 12 12 11 9 11 13 14 19 23 23 22 20 14 11 11 12 13 13 17 17 15 17 14 15 17 18 21 16 13 12 11 14 14 14 15 15 16 16 16 13 17 16 13 12 11 10 7 7 9 9 8
20 20 20 21 21 21 21 21 20 20 20 19 19 19 18 19 18 16 16 15 15 14 15 15 12 15 17 11 16 23 28 33 30 27 23 18 17 16 15 14 13 14 14 14 15 21 23 23 22 18 14 12 12 10 8 12 15 15 16 12 10 12 14 20 17 15 15 13 14 13 11 12 15 18 18 15 12 10 5 10 8 6 7 8 11 9 6 6
21 20 20 21 21 20 21 21 21 20 20 20 20 20 19 20 20 18 17 16 15 14 14 15 14 15 14 11 20 28 29 32 29 28 26 21 19 18 16 17 16 16 16 17 16 17 21 23 21 16 14 14 12 12 10 9 10 13 14 11 9 9 10 16 17 16 16 13 14 15 9 9 14 16 17 15 10 6 13 16 13 11 10 9 10 9 8 7
21 21 20 21 21 21 20 20 21 21 21 21 20 21 21 22 22 20 18 17 16 15 14 15 15 13 11 13 20 25 28 31 30 32 29 22 20 17 16 18 18 17 16 17 17 15 17 21 18 12 12 15 14 13 12 9 8 10 11 10 10 9 9 15 18 19 17 12 16 16 9 10 10 1 1 3 7 16 17 15 12 11 10 8 6 6 6 6
21 22 21 20 20 20 20 20 21 21 21 21 21 22 23 23 24 22 19 18 16 15 13 12 15 13 7 11 17 18 19 24 28 32 29 24 22 18 16 17 18 18 16 16 17 13 14 16 14 12 11 13 14 11 10 10 10 10 11 10 11 12 10 11 16 21 21 15 16 17 10 9 4 10 11 10 15 18 15 12 13 12 10 10 6 5 6 6
21 21 21 21 20 20 20 20 20 20 21 21 22 23 25 25 24 24 22 20 18 16 15 13 13 11 9 14 17 16 16 19 22 23 24 25 25 22 18 16 15 17 15 15 17 14 13 12 10 11 11 11 11 11 10 11 11 10 10 10 12 14 12 10 13 18 23 18 16 18 14 10 5 14 12 13 15 15 13 10 11 11 10 11 8 6 8 6
21 21 21 21 21 20 20 20 20 20 20 21 22 23 26 26 24 24 21 18 17 15 14 14 10 6 8 13 16 18 19 14 14 14 17 22 25 24 21 15 13 15 14 12 15 14 12 10 10 10 11 11 11 12 12 11 12 11 11 10 11 13 13 13 13 14 22 20 17 16 16 14 7 15 12 13 15 13 13 10 9 10 11 13 9 7 7 7
22 22 21 21 21 20 20 20 20 19 19 20 21 23 23 23 21 20 20 16 12 9 7 8 10 7 7 9 13 18 17 9 6 10 13 16 22 23 22 17 14 15 14 10 13 15 11 9 11 11 11 14 15 16 14 12 14 15 14 12 12 12 12 15 15 13 20 18 17 16 15 16 11 14 13 13 15 14 13 11 7 8 10 11 9 8 8 7
23 22 22 21 21 21 20 20 19 18 18 18 19 18 15 13 11 9 12 14 12 12 12 10 14 15 15 17 14 11 12 8 8 11 13 14 19 20 18 16 14 14 13 11 13 15 12 10 12 13 14 17 19 20 18 16 17 16 15 13 15 14 11 15 17 14 19 14 15 17 15 15 12 14 14 13 15 14 13 12 8 8 9 10 11 12 12 10
23 22 22 21 21 21 20 20 19 18 17 17 17 13 9 9 8 5 5 9 14 17 20 19 17 17 18 20 19 14 9 9 10 12 14 14 17 17 14 15 15 12 13 15 13 13 13 12 15 17 17 19 21 20 18 19 21 17 14 12 13 14 12 15 17 15 18 13 12 16 16 16 14 15 14 14 14 13 13 14 12 11 9 9 12 14 13 13
23 22 22 21 21 20 20 20 19 18 17 17 16 13 11 14 14 12 10 8 12 17 20 22 23 20 20 24 24 21 15 9 11 13 15 16 16 15 13 15 15 13 15 16 12 12 13 13 17 19 18 19 20 20 19 20 21 17 11 12 11 12 13 14 17 19 16 10 9 16 16 11 13 15 13 13 11 10 12 13 15 15 12 10 12 14 13 14
22 22 22 21 21 21 21 20 20 20 18 16 17 16 15 18 17 16 12 7 11 15 15 18 21 20 20 23 23 20 16 12 11 11 17 18 15 15 15 15 16 14 16 18 14 12 12 13 18 19 18 19 19 20 21 18 17 15 11 11 10 12 14 11 14 18 14 9 9 14 12 4 12 13 10 10 9 8 10 12 14 14 13 12 13 12 12 13
22 22 22 21 22 21 21 22 22 20 19 17 19 19 18 19 15 13 9 7 10 13 15 18 17 17 20 21 20 19 15 13 12 11 17 19 15 14 15 15 16 15 16 20 20 15 13 14 18 20 20 21 20 20 21 15 12 15 15 12 10 13 16 12 13 14 12 11 10 11 9 7 11 13 9 8 9 8 9 13 14 12 11 10 11 11 11 11
23 22 22 22 21 21 23 24 18 15 16 16 16 14 14 14 11 10 7 6 8 10 15 18 14 15 22 23 22 19 14 14 15 14 14 18 16 13 13 13 12 14 18 23 21 15 14 16 18 21 21 22 21 17 19 16 10 13 17 17 14 13 16 18 17 12 10 9 12 12 8 7 12 15 13 9 9 8 7 11 15 13 13 12 11 10 10 10
22 22 22 22 21 21 22 17 12 13 14 11 8 8 9 10 6 4 3 5 7 9 13 14 11 14 21 20 18 16 15 15 16 17 15 17 18 13 11 10 9 14 18 18 15 9 12 18 20 21 21 22 21 16 19 20 12 10 14 17 18 14 15 20 18 11 8 8 11 14 11 5 9 12 14 13 11 10 7 8 13 14 12 12 10 10 10 10
23 22 22 21 20 20 15 12 15 16 11 8 9 7 5 5 2 4 0 5 6 8 13 12 9 15 20 18 17 16 13 10 13 19 19 17 19 15 13 12 10 13 14 12 10 8 13 20 21 22 21 19 17 14 18 21 13 9 12 16 20 18 16 20 17 12 9 7 9 14 14 6 6 10 15 17 14 13 11 9 12 13 13 12 9 11 12 11
25 24 22 21 21 19 17 17 18 15 9 12 13 6 3 3 1 3 2 6 2 2 9 11 12 16 17 18 21 18 12 9 12 16 20 20 19 15 13 15 14 15 15 12 10 11 15 19 21 22 20 15 14 16 18 20 15 10 13 17 19 17 16 14 12 9 9 8 7 13 15 9 6 11 15 17 16 14 13 12 13 15 15 11 9 11 12 12
28 26 23 23 22 21 20 17 15 13 12 13 12 8 4 2 2 2 3 5 3 4 1 6 11 13 13 17 21 19 15 11 11 13 17 20 20 15 11 13 16 16 18 16 12 12 13 16 19 20 17 13 15 18 17 18 15 12 15 18 17 15 13 10 9 10 10 8 8 13 15 11 6 11 14 13 14 14 12 11 12 15 15 12 11 12 13 12
29 27 24 22 20 19 19 13 11 12 12 11 11 9 4 2 2 3 5 4 4 6 5 1 8 10 13 16 17 19 18 13 10 14 14 14 19 17 11 12 14 13 15 16 15 14 14 14 15 15 14 13 16 17 17 17 17 15 15 15 14 13 11 8 9 9 8 7 11 16 17 14 8 8 14 12 14 16 14 12 13 16 18 15 12 12 13 13
30 26 22 19 18 17 14 10 8 8 8 7 6 5 4 3 2 4 5 1 3 7 7 1 5 10 15 16 14 17 19 14 12 17 13 11 16 16 10 10 11 10 12 12 14 16 17 15 12 12 16 16 15 16 16 17 18 16 13 9 10 9 8 7 7 6 6 8 13 18 17 16 10 6 11 12 15 19 17 16 17 18 20 18 13 12 14 13
29 25 21 18 17 16 12 9 10 8 6 5 2 3 3 3 2 5 4 2 2 5 7 5 7 7 15 17 14 16 17 13 13 18 14 11 13 13 11 10 9 10 11 11 13 14 14 15 13 13 16 17 15 13 13 14 15 15 12 9 9 8 7 8 7 6 7 7 10 15 17 14 9 8 13 13 15 19 17 18 20 20 20 18 15 14 13 14
30 26 21 16 15 14 12 10 9 6 3 2 1 2 2 2 2 3 5 5 1 3 6 7 13 13 12 16 13 16 17 13 14 17 15 14 13 12 14 14 13 11 10 11 12 11 10 15 17 14 11 14 14 12 11 11 13 15 12 10 10 8 7 9 7 7 7 6 9 15 16 12 7 10 19 18 16 18 18 17 18 20 19 17 17 14 12 14
29 22 18 15 14 13 11 8 6 4 2 2 2 1 2 5 4 2 3 4 2 4 7 7 14 15 10 15 13 16 14 11 16 16 14 15 12 11 13 16 18 14 9 11 10 10 12 12 14 13 9 12 15 13 12 11 12 14 12 10 10 8 7 7 7 7 7 7 10 14 11 8 5 6 15 18 16 17 18 16 16 16 17 16 17 16 13 13
23 15 12 12 12 11 9 7 5 4 4 3 2 3 4 4 3 3 3 3 4 6 10 13 12 9 9 14 14 18 14 9 16 15 12 13 11 12 12 13 18 16 10 11 8 10 14 10 13 15 11 14 16 15 14 13 11 11 11 11 10 9 7 5 6 5 3 5 8 8 6 3 1 1 10 15 15 16 17 17 16 16 18 16 15 15 13 12
15 9 9 10 11 8 6 6 5 5 5 4 4 3 3 3 2 4 3 2 5 7 13 13 6 6 8 10 13 19 16 9 15 12 9 13 12 14 15 11 16 18 12 10 7 9 11 9 16 19 15 18 19 16 15 13 9 8 11 12 11 12 9 5 6 3 1 4 6 6 6 3 2 2 8 13 14 16 17 18 17 18 20 17 13 13 13 13
12 9 9 10 11 6 5 6 6 6 4 3 5 3 2 2 2 3 4 5 6 6 8 6 1 3 7 10 11 17 14 9 14 10 7 12 11 13 17 13 15 19 14 11 7 7 9 7 15 20 18 18 19 18 17 16 12 8 10 12 10 11 10 6 6 4 3 6 5 7 11 8 6 4 6 11 14 14 16 19 19 19 19 15 13 15 15 16
13 10 8 8 7 4 5 5 6 6 3 4 7 6 4 3 1 3 5 6 6 4 5 3 1 2 5 10 11 16 14 9 12 10 8 10 9 13 17 13 15 19 16 14 9 7 9 7 12 18 17 15 16 16 14 15 16 12 9 10 9 9 8 7 6 5 7 7 5 9 13 10 8 7 8 12 14 13 16 18 17 19 19 15 15 17 18 17
12 7 5 4 3 3 5 5 6 5 4 5 7 4 3 5 4 4 5 5 4 4 4 2 1 3 3 6 11 16 12 10 13 10 8 8 8 15 18 12 14 19 18 16 9 7 8 5 8 15 16 14 13 12 10 12 15 15 10 11 9 7 7 7 5 5 7 6 6 9 11 8 7 9 13 14 13 13 16 15 14 18 20 17 17 17 15 14
8 5 2 1 2 4 5 4 5 5 4 5 7 6 6 7 6 6 4 2 3 2 3 4 4 4 5 7 7 12 11 11 13 9 8 9 9 14 18 14 13 17 18 17 10 8 7 5 7 11 14 13 10 10 11 11 12 12 11 12 11 7 7 7 6 7 7 6 6 7 7 7 6 8 14 16 13 13 14 12 13 18 20 19 19 17 14 13
7 5 1 3 3 5 4 4 5 4 4 5 7 8 7 7 7 8 4 1 2 3 4 6 7 5 4 8 4 10 9 8 12 9 6 10 9 8 14 15 13 15 15 14 10 8 5 4 8 8 10 11 10 12 14 13 12 11 10 10 11 9 8 8 8 9 8 6 6 6 6 6 4 5 10 12 11 12 13 15 16 18 20 19 19 18 15 14
7 5 1 5 4 4 3 5 4 3 4 5 6 8 8 7 7 8 6 3 3 4 5 5 7 6 5 8 5 9 8 7 11 8 4 9 9 7 14 17 15 16 13 9 10 11 5 4 8 8 9 10 12 14 16 15 14 12 10 9 10 11 10 7 7 8 8 8 7 7 6 3 1 3 7 9 9 10 12 16 16 17 20 20 20 18 16 15
6 6 2 5 4 3 4 5 4 2 2 6 9 8 7 6 8 8 7 6 4 3 3 4 6 6 4 7 7 9 9 8 10 8 7 10 8 10 16 16 15 16 13 8 9 10 5 5 8 8 8 10 12 14 16 17 14 11 11 11 10 11 11 8 7 6 6 8 7 6 5 2 1 2 5 8 10 10 10 14 17 17 16 18 22 19 15 16
6 7 1 5 5 4 5 5 6 5 5 9 11 9 4 3 6 7 7 7 5 3 4 4 5 5 6 9 9 9 10 8 7 8 9 10 7 11 15 14 13 14 11 8 7 7 4 6 9 7 7 9 10 11 14 16 14 10 10 13 13 14 15 12 8 6 5 8 10 8 4 3 2 2 3 8 11 11 9 14 19 18 15 16 20 16 13 15
6 6 2 3 5 5 5 5 6 7 8 11 12 10 6 4 5 6 7 8 5 4 6 5 6 8 7 9 7 8 10 8 6 7 9 9 7 9 14 12 13 13 13 8 3 6 6 7 8 8 8 10 9 10 11 11 10 8 11 17 17 16 16 13 7 6 5 7 10 9 4 6 7 5 4 8 12 10 8 16 19 18 17 16 17 14 12 13
4 3 3 2 2 4 5 6 6 7 8 10 9 8 9 8 5 3 5 5 5 5 7 6 7 8 6 7 5 8 12 9 6 7 9 8 5 8 13 14 14 13 12 5 5 2 6 5 9 11 9 9 9 9 11 10 10 10 14 19 18 16 17 11 6 7 6 6 8 8 4 10 10 8 7 8 7 5 10 17 18 16 17 16 15 14 12 12
3 2 4 5 4 4 4 4 6 7 9 9 7 7 10 10 6 2 2 2 6 8 7 5 6 7 6 4 4 8 12 11 8 7 9 8 6 8 11 13 14 11 9 5 6 4 3 4 12 15 12 11 11 10 13 15 15 15 16 17 16 16 17 12 8 9 8 6 7 5 8 11 9 10 10 5 7 11 13 15 16 15 14 13 14 14 12 13
4 3 4 4 4 5 6 7 9 11 13 11 7 7 10 10 8 6 1 2 6 8 5 4 5 7 6 4 3 4 9 10 8 7 8 7 8 9 10 13 13 10 8 5 6 6 4 4 10 13 13 12 12 13 16 17 16 15 15 14 13 15 18 15 11 11 10 7 6 4 11 10 8 9 7 8 13 15 14 13 13 12 11 11 13 14 14 14
5 4 4 5 5 7 10 12 13 14 13 11 7 7 10 10 10 9 4 3 5 5 4 4 6 7 5 5 3 4 5 4 4 6 7 7 9 9 8 11 12 11 11 9 6 5 4 5 8 11 11 10 11 13 15 15 15 16 16 15 14 15 18 17 13 11 12 10 9 6 10 9 8 7 10 12 13 14 14 13 12 12 11 11 12 13 13 14
4 4 5 6 7 8 9 10 10 11 10 8 6 7 9 10 11 10 6 2 3 2 2 3 7 7 4 4 2 2 3 6 4 1 2 2 9 8 6 7 10 13 14 10 5 2 3 4 10 10 8 9 12 12 12 12 13 15 16 16 15 15 16 15 12 9 10 11 10 7 7 7 7 8 13 14 14 14 14 15 15 15 14 13 12 11 12 13
7 8 7 6 6 7 8 7 8 8 7 6 6 7 9 10 11 11 7 4 5 1 3 3 7 7 4 2 2 2 5 7 9 8 9 5 3 6 6 6 9 12 12 9 6 4 3 4 9 8 6 6 10 11 11 12 13 15 16 16 16 14 12 12 11 10 10 9 9 9 7 6 6 12 14 13 15 16 16 16 16 16 17 18 16 15 14 14
10 9 7 6 5 7 8 7 8 7 5 6 8 9 11 11 11 11 7 4 6 6 5 6 7 6 4 1 2 1 2 4 9 11 9 8 6 4 7 8 9 10 9 7 6 6 5 5 6 6 5 6 10 11 5 5 10 12 10 12 15 15 12 11 12 12 11 8 6 8 7 5 10 14 14 13 15 15 15 15 14 15 18 18 19 19 17 15
Wind_Direction
342 341 341 341 340 333 326 324 319 318 317 310 300 289 280 283 291 297 301 305 309 312 315 316 315 315 314 313 311 308 310 307 298 288 267 256 252 249 249 247 239 240 244 246 251 250 238 230 223 218 221 220 221 226 225 224 218 215 220 235 237 234 238 240 247 252 269 271 208 175 195 199 203 211 181 165 231 239 259 255 210 45 108 123 130 136 142 145
339 339 339 339 339 339 333 327 323 322 319 315 311 304 291 281 284 291 295 300 305 309 312 314 315 315 313 312 309 309 311 303 291 280 267 258 252 248 247 246 242 239 239 237 237 232 225 223 215 211 216 217 213 216 221 217 213 218 220 227 233 237 239 241 251 254 258 259 209 168 144 137 233 257 213 185 221 211 238 246 108 80 97 115 127 136 140 147
335 336 336 336 336 337 335 331 328 326 323 318 314 312 304 292 285 284 290 296 299 306 310 312 315 315 314 312 310 312 312 301 288 274 263 251 237 237 243 245 242 237 234 233 235 232 230 228 215 209 213 220 215 210 213 212 209 217 225 228 231 236 246 247 248 251 255 269 273 124 111 196 245 269 264 242 251 231 225 231 128 111 117 119 130 138 141 148
332 332 332 332 333 333 333 332 329 327 326 323 317 315 311 303 293 283 284 290 295 302 307 311 313 312 315 314 311 315 311 296 286 247 192 210 213 222 231 237 239 235 231 234 245 247 245 242 227 212 213 220 217 214 213 213 210 211 222 232 236 231 241 251 250 252 261 293 314 318 131 189 243 241 249 254 256 248 223 227 173 133 132 133 137 142 144 150
330 330 329 329 329 330 330 330 329 327 325 324 321 318 314 310 304 292 281 281 291 297 303 307 308 309 313 313 312 313 308 293 9 109 138 180 197 214 223 231 233 230 228 232 244 252 253 250 239 219 215 221 217 217 214 215 214 212 224 231 241 241 235 240 247 256 266 258 263 280 261 192 251 229 229 243 248 257 233 230 183 141 138 143 142 146 149 156
328 328 327 326 326 326 327 327 327 326 324 322 320 319 317 313 310 301 286 278 283 290 298 302 304 308 310 312 311 300 282 272 56 104 146 179 192 224 227 230 229 221 220 227 233 239 241 241 237 223 214 219 220 220 215 214 215 216 228 228 234 245 249 248 251 262 271 255 245 263 270 270 265 247 229 239 247 258 263 296 163 143 141 144 145 153 156 164
327 327 326 325 324 323 323 324 324 323 322 319 318 317 316 315 312 306 294 282 280 284 292 297 301 306 311 316 307 282 250 262 284 268 214 199 184 262 215 216 220 212 214 220 224 227 228 227 226 222 215 217 220 223 220 215 218 222 229 230 230 235 248 258 265 268 248 255 259 266 268 259 256 254 244 242 244 251 271 3 116 142 141 143 145 159 164 170
325 325 324 324 323 322 321 320 321 320 319 317 317 315 314 316 313 309 301 287 278 279 285 292 298 304 310 314 303 281 246 260 270 246 211 194 165 255 233 223 212 207 214 217 218 219 222 223 220 220 219 218 219 224 224 220 218 223 229 233 235 233 240 250 258 256 218 237 254 259 263 255 250 253 256 250 240 241 204 77 108 132 140 147 150 161 165 173
321 321 321 321 321 321 319 318 318 316 317 316 314 314 313 313 311 310 306 292 279 274 278 285 292 302 303 297 288 281 263 265 254 168 176 209 192 238 251 242 216 202 210 217 219 219 219 222 219 221 226 224 221 224 225 226 219 217 227 234 238 240 238 239 245 242 220 224 236 240 249 249 249 249 252 252 246 239 135 106 114 127 148 155 151 162 166 174
316 316 316 316 317 318 317 316 315 313 314 314 314 314 311 309 308 308 307 299 284 274 274 276 285 297 295 284 270 265 265 268 224 155 192 222 227 255 251 252 223 205 209 214 218 220 220 221 220 223 235 235 228 229 226 228 230 217 223 230 235 244 245 239 241 234 220 224 233 237 242 241 243 241 243 245 242 246 180 125 129 143 154 159 159 167 163 158
315 313 312 312 312 313 313 313 313 312 311 311 312 312 309 307 303 303 304 301 289 275 270 269 274 286 284 276 263 254 257 262 250 271 277 251 259 260 249 255 240 224 221 214 215 219 222 224 224 223 229 236 235 235 232 234 240 231 230 231 229 235 246 246 243 234 224 225 231 240 249 246 239 233 239 238 225 238 220 143 146 162 158 166 165 144 83 51
315 314 312 311 310 308 308 308 309 308 308 308 309 309 309 306 301 299 299 298 293 278 268 266 264 274 277 270 257 254 264 275 292 301 293 275 270 263 255 253 247 246 240 227 218 216 222 225 227 227 221 226 235 237 233 233 239 239 239 241 233 228 238 243 238 228 228 234 231 233 247 245 238 235 236 238 235 235 212 153 159 173 157 154 120 94 80 82
320 317 315 312 310 308 306 304 304 303 304 305 304 305 305 303 299 296 293 293 292 280 269 266 261 268 273 267 261 261 268 276 284 286 277 271 271 265 255 248 244 246 245 245 232 217 218 224 229 233 230 227 228 236 243 235 235 237 235 237 239 231 232 234 229 220 222 231 228 225 237 237 235 236 235 234 234 232 160 84 48 59 59 39 48 58 75 94
326 322 319 315 312 309 306 303 301 300 299 299 300 301 300 298 296 293 290 286 284 280 270 264 263 268 268 266 268 266 262 266 271 271 265 261 261 257 247 242 241 239 239 244 246 234 219 220 230 235 236 238 234 235 242 243 235 231 231 227 228 234 230 225 219 214 218 220 217 224 237 241 236 231 239 239 206 139 84 68 52 62 57 41 43 39 37 26
330 326 322 318 315 312 308 305 302 299 297 296 295 295 293 292 292 291 287 281 277 275 269 265 258 260 271 271 271 269 258 251 253 254 252 251 250 249 241 235 234 232 232 234 241 248 228 216 224 232 232 237 241 237 229 231 230 222 224 222 219 231 236 223 212 208 217 212 207 222 235 239 244 214 319 298 101 97 94 96 94 92 89 87 75 51 52 25
330 327 325 321 317 313 309 306 303 300 297 294 293 291 289 288 289 290 285 277 272 266 260 259 250 244 264 272 269 274 256 236 238 242 240 240 240 241 238 230 227 225 224 226 228 237 237 220 216 226 227 228 231 234 228 218 218 215 215 221 216 219 233 230 210 201 210 212 205 216 232 238 222 82 78 75 82 92 101 109 113 112 112 114 111 90 85 65
327 327 326 323 320 316 312 307 304 301 298 295 293 288 285 285 283 284 283 273 266 255 239 239 250 252 258 269 273 277 256 229 229 235 229 227 229 232 234 226 218 215 211 215 218 221 231 220 209 218 222 224 219 219 226 214 208 208 206 220 221 216 223 231 219 197 197 208 211 210 223 239 139 99 101 100 96 100 102 106 119 125 131 127 120 114 111 120
325 324 323 323 322 319 315 308 304 301 299 296 291 287 286 286 282 279 275 263 253 248 241 237 248 264 249 248 248 251 257 237 211 222 224 214 212 219 226 222 209 204 203 205 207 210 217 209 205 209 210 218 214 210 219 210 204 205 200 210 222 223 217 223 233 197 184 199 216 211 214 226 160 110 112 113 111 110 113 124 133 136 138 131 132 137 132 145
323 322 321 322 321 319 316 310 304 300 298 296 294 294 293 286 275 265 256 242 227 227 239 216 201 217 262 266 242 236 253 265 218 225 228 204 196 207 217 220 209 197 200 197 192 199 205 202 203 208 206 207 209 211 213 212 210 205 203 205 213 227 218 221 236 194 174 192 213 216 214 216 185 131 132 130 121 118 123 133 136 138 135 131 136 134 131 135
323 322 321 320 319 320 317 310 304 299 297 297 298 300 295 278 262 250 240 232 224 226 238 219 195 214 257 284 284 243 216 223 232 228 226 200 186 197 211 215 206 197 203 196 184 191 198 202 204 206 205 203 208 214 213 219 225 214 207 209 211 225 219 215 231 197 171 188 213 215 217 214 185 147 148 141 129 129 131 136 140 143 137 138 142 137 140 140
324 322 322 320 319 320 318 312 304 297 293 290 292 289 278 272 275 307 306 252 239 236 242 243 226 223 244 264 279 278 243 215 215 219 221 203 185 191 203 205 202 196 202 197 183 187 201 209 208 206 205 205 209 214 213 220 236 233 216 214 210 220 228 214 224 209 175 184 214 208 221 219 176 150 154 148 143 147 147 144 145 148 146 143 144 147 148 138
324 323 322 320 319 321 319 313 303 295 290 283 277 266 263 273 279 298 312 287 261 247 243 246 244 241 244 253 264 278 283 252 218 215 208 200 193 193 192 197 202 193 194 198 185 186 205 214 208 204 205 209 208 211 215 218 232 244 230 228 215 206 229 221 219 220 186 178 214 200 218 221 152 142 146 145 148 155 157 151 146 151 157 155 151 153 153 147
323 322 321 319 319 321 319 312 303 294 283 272 265 260 267 274 279 287 281 273 277 262 245 239 240 243 242 247 251 255 262 249 236 220 195 195 200 196 192 195 200 193 191 198 194 188 203 211 205 203 204 209 208 205 213 217 225 240 237 237 227 200 217 222 214 217 187 172 219 200 197 154 120 129 130 133 138 141 149 147 143 153 161 159 154 151 157 163
322 320 319 318 317 317 319 314 302 286 271 262 261 266 277 282 295 311 291 268 276 265 250 235 229 236 237 238 239 236 241 240 243 232 193 190 199 198 200 198 197 198 196 199 201 200 203 202 199 203 202 205 210 204 206 214 218 229 234 233 233 212 210 220 216 203 172 178 219 209 177 130 129 137 133 139 137 134 144 143 141 151 157 151 146 149 161 175
322 320 316 317 316 314 316 310 296 285 281 269 267 286 307 305 320 343 318 273 266 262 250 231 220 229 228 230 232 228 235 233 231 234 202 191 199 198 200 202 201 204 199 198 204 207 205 197 194 201 201 201 209 206 200 208 213 221 229 230 236 222 202 218 225 193 167 191 205 216 213 161 155 152 146 152 144 140 152 145 144 151 158 155 153 161 169 177
321 322 319 317 316 315 314 306 298 305 299 279 288 332 341 325 331 351 307 272 271 266 239 213 204 212 210 218 221 214 232 230 220 231 222 201 205 207 202 199 205 210 200 196 205 213 203 196 193 199 200 198 206 210 201 204 214 217 216 224 238 235 205 215 219 176 170 209 190 209 234 180 158 162 153 156 156 154 163 159 151 153 164 164 162 175 175 170
320 320 321 320 318 315 309 302 309 310 299 305 332 347 345 333 35 94 223 270 263 237 218 202 182 181 188 201 198 196 220 208 198 226 226 206 204 214 215 198 196 213 203 192 204 208 200 196 192 197 200 197 202 211 201 200 213 215 198 214 235 242 229 218 204 167 174 215 197 207 227 214 173 173 162 163 163 158 165 175 161 157 168 166 162 176 168 153
322 320 320 321 317 308 296 290 299 302 302 321 325 324 345 329 148 120 222 263 283 185 202 197 179 172 179 190 190 198 216 177 173 210 216 205 201 210 221 207 200 208 204 199 201 195 198 198 190 192 201 199 200 209 202 197 210 216 194 209 229 240 250 241 220 199 187 196 217 213 216 224 196 173 172 169 163 164 171 178 170 161 163 159 159 168 155 140
327 323 321 320 314 306 298 281 278 295 312 314 301 292 319 286 215 152 228 262 339 9 323 173 177 185 187 183 186 203 216 196 173 185 200 202 202 211 229 220 208 207 209 210 206 192 196 203 192 190 202 201 198 206 203 195 204 215 204 206 218 231 249 260 258 242 204 192 232 220 204 222 221 163 171 177 167 170 177 179 174 161 158 159 165 163 145 137
329 325 322 320 313 309 307 285 275 301 312 307 295 292 291 230 208 199 226 270 351 344 341 135 175 196 193 179 183 200 211 212 173 164 187 194 198 214 238 234 220 213 210 210 215 202 185 200 200 190 201 204 195 200 203 198 200 213 215 204 204 220 233 247 264 249 208 201 234 230 206 208 227 166 168 183 174 171 171 173 177 167 161 164 168 161 142 137
328 325 323 318 306 304 306 304 316 321 313 313 298 280 256 216 231 228 216 207 355 338 342 275 205 206 194 181 183 195 209 218 168 157 182 185 187 206 224 228 222 214 205 201 216 205 181 194 207 188 197 202 191 194 203 201 198 209 223 208 191 205 217 233 257 240 209 210 220 230 221 205 212 186 171 178 173 171 168 169 175 172 165 164 164 158 143 139
327 323 318 309 298 291 281 293 322 319 317 344 317 268 251 205 224 248 267 337 326 333 350 331 303 252 197 185 185 189 206 220 173 161 180 182 181 196 207 209 199 197 198 188 203 205 184 190 195 184 193 198 188 188 198 195 192 207 222 211 191 189 198 214 228 217 216 227 215 220 228 219 207 169 166 176 175 172 170 170 174 172 167 161 149 144 143 145
327 323 315 304 294 281 267 278 306 308 322 356 295 283 267 248 239 239 297 337 350 319 328 320 319 301 216 189 187 189 204 211 175 168 180 182 183 193 208 215 204 202 199 179 188 201 189 184 185 181 184 195 193 186 192 187 186 205 214 206 198 188 189 199 206 210 215 237 238 226 226 227 214 165 166 177 178 171 171 174 174 168 164 155 139 134 139 142
326 321 307 297 286 273 270 275 283 285 272 246 228 202 250 270 287 278 302 324 314 302 306 310 319 307 230 195 189 186 201 198 170 172 179 180 186 188 204 217 210 211 198 175 187 198 190 180 182 188 183 193 203 202 196 185 186 205 208 201 205 201 197 198 199 206 210 222 237 241 233 216 223 183 168 173 174 174 172 169 169 156 143 138 135 135 135 136
327 323 304 294 280 269 267 259 250 249 243 249 247 226 250 270 289 312 320 323 321 315 314 310 301 282 209 196 190 186 203 191 164 176 183 180 188 185 195 210 208 212 193 173 195 194 185 178 177 193 200 193 207 219 202 186 190 205 203 198 205 208 197 191 206 203 219 236 225 236 244 197 246 87 151 165 172 173 166 160 163 141 123 127 134 139 142 145
329 327 309 282 267 263 252 235 221 220 232 265 277 248 276 293 288 321 331 314 310 315 318 312 273 216 196 192 185 188 207 195 166 178 185 184 192 188 195 205 204 211 199 176 197 185 180 181 173 186 206 197 203 219 203 186 191 196 200 201 204 214 207 185 198 165 52 258 214 204 219 168 125 114 146 165 171 171 165 159 156 134 125 134 138 140 147 149
322 319 307 273 258 242 220 212 196 212 232 263 278 276 299 280 232 276 305 312 308 306 313 311 234 204 196 183 179 185 191 175 172 183 180 187 194 188 198 205 203 215 208 184 202 193 182 179 167 181 201 196 199 215 205 192 199 201 195 195 200 223 233 215 200 161 178 235 213 203 214 191 170 175 162 171 176 175 166 156 150 138 131 137 142 145 148 150
310 310 305 278 265 219 202 199 192 218 247 260 268 268 270 285 240 249 293 313 304 288 294 295 347 312 196 175 175 179 175 162 175 184 177 188 193 185 197 201 203 219 212 190 199 196 186 171 160 181 194 185 191 212 209 192 206 220 195 180 196 221 231 228 215 185 193 215 219 216 219 210 195 182 164 176 181 173 158 154 159 151 138 137 146 149 148 150
301 307 300 268 271 208 191 195 209 235 261 266 279 288 297 317 316 293 313 317 290 277 298 310 345 320 266 201 176 173 176 170 175 185 182 189 188 183 194 198 199 214 215 204 194 172 192 186 155 182 188 176 184 207 207 186 202 223 206 182 202 225 222 220 216 204 203 205 213 219 219 218 205 172 166 181 187 176 165 163 164 151 140 142 149 148 148 150
295 303 288 193 220 198 181 207 237 254 259 265 291 306 320 332 323 319 335 315 283 276 294 316 312 307 305 282 208 177 181 172 173 192 189 187 183 179 191 196 194 205 215 221 207 166 198 203 152 177 183 175 185 201 201 188 189 213 215 192 196 219 224 215 209 210 213 207 203 216 223 218 199 164 172 181 183 183 174 149 136 137 136 139 143 145 149 150
298 300 255 149 178 179 180 242 253 265 268 272 287 297 323 341 323 323 339 275 276 270 261 288 293 277 287 297 247 175 181 171 178 199 187 183 189 176 188 193 190 196 209 226 213 172 194 184 146 174 190 182 191 198 203 204 192 203 220 202 192 205 213 209 211 209 211 217 209 211 225 221 195 167 178 176 171 179 168 138 130 137 134 131 140 146 149 150
296 310 84 134 178 190 229 271 262 242 251 284 306 316 331 328 310 321 332 318 301 273 250 259 274 272 280 296 259 178 181 176 183 204 183 173 188 185 184 188 189 190 197 220 204 178 192 183 155 179 202 189 187 195 208 217 205 200 216 214 199 204 211 212 210 203 205 215 218 220 222 221 54 128 156 162 171 183 166 140 134 136 131 133 145 147 148 152
307 323 63 136 180 229 273 290 296 284 274 306 320 332 334 314 310 318 322 321 312 278 262 257 271 281 293 295 261 190 172 171 182 203 178 159 188 197 177 175 186 186 190 217 199 176 187 188 165 177 197 190 185 192 208 219 213 201 210 221 215 203 205 217 220 206 208 211 212 223 213 186 25 89 135 156 174 191 173 139 132 133 128 136 147 147 149 153
315 305 258 149 167 234 281 311 328 327 325 322 326 338 341 298 305 304 303 315 309 293 300 288 291 297 296 295 267 189 163 167 179 196 177 156 199 201 163 164 192 187 191 215 188 165 184 176 167 175 184 185 188 190 199 211 212 201 202 217 228 215 201 209 227 219 217 218 214 217 200 154 99 82 131 160 173 193 182 137 131 134 130 138 146 144 148 150
313 295 272 158 180 232 279 311 319 312 316 323 324 327 324 305 298 277 280 305 310 306 308 301 306 302 293 301 281 187 171 174 171 188 180 162 191 179 150 172 205 193 199 219 150 157 185 169 172 189 182 183 195 190 187 201 207 200 206 213 222 226 211 205 216 216 213 219 223 232 204 137 125 120 157 180 185 194 156 125 127 132 133 141 146 143 148 149
322 314 326 333 254 265 279 291 305 303 311 321 316 317 328 329 325 269 259 303 332 321 307 302 309 308 303 307 276 187 173 173 175 183 172 164 176 146 145 184 208 202 214 279 6 179 189 178 193 200 194 192 198 183 171 186 202 200 212 212 209 221 224 212 201 209 206 205 228 243 183 134 136 152 183 194 179 135 108 119 126 129 134 141 143 143 149 147
327 326 342 342 313 307 306 301 318 315 311 315 307 318 333 332 346 37 211 300 359 347 323 307 309 315 315 297 230 175 162 170 188 174 146 153 169 140 148 187 203 209 225 292 317 237 199 207 202 202 208 201 195 189 176 185 204 206 211 214 202 210 226 228 220 211 203 211 232 215 136 130 147 171 185 172 113 100 107 123 129 130 135 136 136 142 146 143
352 326 346 351 312 311 321 316 318 315 314 317 313 324 334 340 10 34 6 312 1 3 345 320 321 311 282 243 218 183 161 169 185 157 129 155 170 148 159 186 190 192 200 225 250 222 196 219 209 206 213 200 190 197 187 185 201 209 212 215 205 208 222 234 237 216 200 219 240 161 123 133 168 176 153 101 94 104 110 116 122 124 122 120 129 141 146 146
350 321 341 352 323 300 300 302 305 309 315 318 318 331 340 350 8 14 8 355 348 354 358 336 329 307 241 193 215 218 157 145 172 147 142 168 159 146 169 179 171 176 192 208 226 208 183 224 231 216 208 210 216 210 190 186 200 206 208 210 207 211 219 228 238 223 205 217 233 188 134 147 184 162 120 106 106 110 111 116 127 130 124 122 131 139 146 151
348 319 328 331 317 299 294 300 304 306 312 313 320 340 342 348 357 354 360 355 300 316 44 334 323 307 249 178 217 261 34 1 337 58 32 157 146 155 190 177 158 171 190 202 207 172 150 242 254 234 200 215 237 219 187 189 204 208 210 211 212 216 218 218 227 233 222 221 227 209 166 175 188 136 118 122 118 114 121 130 134 138 140 141 141 141 146 151
327 310 315 312 307 308 306 310 307 302 310 322 332 341 336 340 347 342 339 309 286 340 83 4 347 332 287 168 122 22 7 334 320 333 332 318 161 174 198 181 164 172 183 185 172 155 167 255 262 240 198 207 231 223 198 195 208 213 212 210 210 216 220 212 212 222 228 225 219 214 207 198 154 119 119 131 130 127 136 142 142 148 153 155 156 154 151 153
332 316 321 313 297 306 309 310 307 302 316 336 336 335 332 332 337 336 334 320 329 6 26 9 14 5 338 32 107 355 327 298 311 318 310 304 303 249 206 188 173 172 176 171 166 170 188 243 251 210 193 208 218 222 218 206 218 218 215 214 209 208 214 218 216 213 214 222 225 220 215 165 127 123 129 143 146 144 148 152 154 157 158 160 162 161 159 157
Height
813 811 810 808 807 805 804 803 802 801 801 800 799 799 798 798 798 798 797 796 796 795 794 793 791 790 787 786 784 782 780 776 772 769 764 757 758 759 757 757 758 758 760 761 761 761 759 757 756 756 756 755 755 753 750 745 743 749 759 766 763 758 751 741 736 730 724 719 717 716 715 721 724 718 710 714 722 724 725 720 715 712 710 717 725 732 739 744
813 811 809 808 807 805 804 803 802 801 800 799 798 797 797 797 796 796 796 795 795 794 793 792 790 789 787 785 783 781 779 775 770 764 755 753 755 756 755 755 757 757 759 760 760 758 757 755 753 753 755 754 752 750 750 744 742 750 756 761 758 749 740 730 727 722 718 717 714 713 716 721 724 719 711 721 730 726 731 726 720 725 723 724 728 733 739 743
812 811 809 808 806 805 804 802 801 800 799 798 797 796 796 795 795 794 795 794 794 793 792 791 790 788 786 784 781 780 778 773 765 755 747 748 751 752 752 753 755 756 758 758 758 756 754 751 749 750 753 753 749 747 749 744 742 746 750 757 751 740 734 724 721 717 712 709 711 715 719 724 722 716 715 724 730 727 731 727 726 736 735 734 734 736 741 743
812 811 809 807 806 805 803 802 801 800 798 797 796 795 795 794 793 793 793 793 793 792 791 790 789 787 785 783 781 780 778 771 756 746 744 745 747 749 750 751 753 755 756 757 756 756 753 750 746 746 751 752 747 743 746 742 740 742 744 750 741 733 734 725 717 712 707 708 715 718 722 728 722 717 720 725 732 731 726 720 722 732 733 735 736 737 741 744
811 810 808 807 806 804 803 802 800 799 798 796 796 795 794 793 792 792 791 791 791 791 790 790 788 786 784 782 780 779 779 767 747 742 745 745 746 748 748 749 751 753 755 756 756 755 753 749 745 744 747 749 746 743 743 736 734 740 740 739 734 729 731 722 713 709 707 711 718 722 724 726 720 718 721 724 734 730 717 710 711 720 726 730 734 737 741 745
811 809 808 806 805 804 802 801 799 798 797 796 795 794 793 792 791 790 790 790 790 789 789 788 787 785 783 781 779 779 779 762 742 745 746 745 747 747 748 748 749 752 754 755 755 753 751 749 747 745 745 746 745 742 739 731 729 740 739 732 731 728 726 717 709 709 711 716 722 725 723 721 723 723 719 723 728 719 708 704 706 714 719 723 729 736 741 745
810 808 807 806 804 803 801 800 799 797 796 795 794 793 792 791 790 789 788 788 788 788 788 787 786 785 782 781 777 775 773 757 743 746 746 745 747 746 748 747 748 751 752 753 752 751 749 748 747 744 743 744 743 739 734 729 727 736 738 731 728 725 723 717 710 711 715 721 723 722 722 723 728 726 720 722 721 712 706 703 706 713 716 720 728 734 739 742
809 808 806 805 804 802 801 800 798 797 796 794 793 792 791 790 789 788 787 787 786 786 787 786 786 784 783 781 777 770 764 753 744 745 746 746 747 746 747 746 748 749 750 750 748 748 747 746 745 741 742 741 738 736 731 730 730 732 734 729 725 723 720 716 713 714 718 724 724 724 726 725 723 722 723 722 715 709 707 706 711 718 720 722 726 731 737 740
808 806 805 804 802 801 800 798 797 796 795 794 792 791 790 789 788 787 786 785 785 785 785 785 785 783 783 780 777 770 757 748 744 745 746 746 746 746 746 745 745 746 747 747 745 746 745 743 741 737 740 737 734 734 729 732 732 727 729 728 725 723 717 715 716 715 719 723 724 728 731 726 719 722 726 719 711 708 708 711 717 725 730 729 728 730 734 739
806 805 804 802 801 800 799 797 796 795 794 793 791 790 789 788 787 786 785 784 784 783 783 784 783 783 782 778 776 767 752 746 746 745 746 746 746 746 745 744 743 742 743 744 743 742 740 740 737 734 736 734 731 730 726 728 726 719 722 724 724 722 716 714 716 714 716 721 723 729 731 725 719 724 729 718 708 707 709 715 719 727 735 734 733 733 737 743
805 803 802 801 800 799 797 796 795 794 793 791 790 789 788 786 786 784 783 783 782 782 782 782 782 782 780 776 771 762 749 745 745 745 747 747 746 746 744 743 742 741 740 740 740 739 738 736 733 733 736 733 730 729 724 721 718 715 719 722 721 721 719 715 715 714 717 722 722 724 728 724 720 724 726 714 706 707 711 717 721 726 733 734 736 741 748 757
803 802 800 799 798 797 796 795 793 793 791 790 789 787 786 785 784 783 782 782 781 781 781 780 780 780 777 773 765 757 749 745 745 746 747 746 746 745 743 743 742 742 739 737 736 736 737 734 732 734 734 731 732 731 724 716 716 716 718 724 723 721 723 718 715 716 720 724 718 721 733 731 725 723 717 708 705 704 706 717 724 727 732 737 742 749 756 762
802 801 799 798 796 795 794 793 792 791 790 789 788 786 786 784 782 782 781 780 780 779 779 779 778 778 776 768 758 756 752 746 745 746 745 745 745 743 743 742 742 741 740 737 734 734 735 733 731 732 728 728 731 726 718 713 717 719 719 725 728 729 727 718 714 715 720 722 714 722 742 738 725 719 710 705 703 704 714 729 738 742 745 749 753 756 759 762
801 799 798 796 795 794 792 791 790 789 788 787 786 785 784 782 781 780 780 779 778 778 778 777 777 777 773 762 753 753 750 746 745 743 742 744 742 741 741 741 740 740 739 737 735 732 732 731 731 730 727 725 724 719 719 720 720 722 724 724 728 736 730 714 711 716 721 719 710 723 743 736 722 714 707 702 701 712 733 746 751 755 759 761 761 763 765 768
800 798 796 795 793 792 791 789 788 787 786 785 784 783 781 781 779 778 778 777 776 776 776 776 775 774 770 758 748 745 743 743 742 738 739 741 740 739 738 738 738 737 737 736 735 732 730 729 731 732 729 724 722 724 727 729 724 723 731 733 729 733 729 713 706 712 720 717 710 723 738 731 721 718 714 709 709 722 742 749 751 754 758 762 764 765 768 771
799 797 795 794 792 791 789 788 787 785 784 783 782 781 779 778 777 776 776 774 775 775 775 775 771 771 769 754 743 739 737 736 734 733 736 738 738 736 736 735 734 734 735 734 733 732 729 727 728 730 729 727 727 730 731 732 730 724 729 736 730 729 730 717 704 703 711 716 713 721 732 727 724 726 722 719 720 729 740 747 750 753 756 761 764 764 767 771
797 796 794 792 791 789 788 786 785 783 782 781 780 778 776 776 774 773 773 773 773 771 772 771 766 770 764 748 741 737 730 727 728 729 730 733 735 735 734 732 730 731 731 732 732 731 729 727 728 728 728 728 727 730 736 738 735 726 725 731 725 722 726 721 708 698 702 714 715 718 724 723 725 727 723 721 724 731 742 749 752 755 758 761 763 765 766 769
796 794 793 791 789 787 786 785 783 782 780 779 778 776 774 771 770 770 769 770 770 770 772 768 768 770 752 736 737 732 723 721 722 725 725 726 730 732 732 728 727 727 729 730 730 730 729 726 726 729 729 729 726 727 737 736 730 727 726 729 726 718 718 718 709 696 698 713 716 717 722 721 724 727 726 725 726 732 741 748 751 754 758 761 763 766 766 768
795 793 791 789 787 786 784 783 781 780 779 777 775 773 770 767 767 767 765 765 766 767 767 761 763 760 736 722 726 725 722 721 721 723 722 721 726 729 728 726 723 724 728 730 729 727 726 726 727 730 729 728 724 721 725 723 718 718 717 722 725 719 713 709 702 690 693 712 716 715 718 718 722 728 728 727 726 732 739 744 749 752 756 761 762 765 768 772
793 791 790 788 786 784 782 781 780 778 777 776 774 772 768 762 760 760 760 760 758 756 754 749 750 747 732 723 722 722 721 720 721 721 719 719 722 725 725 723 721 722 725 726 727 723 723 729 729 725 724 722 720 716 715 714 709 708 709 713 716 715 710 702 696 687 688 709 714 710 712 713 720 727 726 727 729 733 740 744 749 752 755 758 760 763 766 769
792 790 788 786 785 783 781 780 778 777 776 775 774 771 766 760 756 754 755 754 750 749 747 742 743 741 734 727 723 722 719 715 718 718 718 718 718 723 722 719 720 722 721 718 720 720 721 727 723 717 717 716 716 714 713 714 710 705 705 708 709 711 705 694 691 686 685 704 711 707 710 709 715 725 724 725 731 734 737 741 748 751 754 757 758 761 761 762
791 789 787 785 783 781 780 778 777 775 775 773 772 768 762 759 757 755 755 751 744 742 742 740 739 736 733 729 724 724 721 715 715 715 715 716 716 719 718 716 719 718 716 714 717 723 724 722 716 711 711 711 712 711 713 715 712 708 704 705 705 704 702 694 687 681 682 700 709 706 710 709 712 723 724 725 730 733 733 736 742 748 752 756 757 759 760 760
790 787 786 784 781 780 778 776 775 773 773 771 768 764 760 758 757 756 756 753 744 737 736 735 735 733 730 727 724 725 723 718 715 711 710 713 713 713 713 714 714 713 713 711 712 721 724 717 709 707 707 709 710 710 713 714 712 711 706 705 701 695 701 700 688 680 680 695 704 702 710 719 722 726 728 727 729 732 733 735 739 744 749 752 754 756 760 762
788 786 784 782 781 779 776 775 772 770 769 767 765 761 759 759 757 756 755 752 744 733 729 728 728 728 725 723 723 724 722 718 716 710 706 709 710 710 709 709 710 710 708 706 706 711 714 707 702 703 705 707 710 709 710 714 714 711 704 703 698 691 694 695 686 681 684 695 699 699 717 734 734 736 738 731 730 734 734 736 741 745 748 752 754 756 759 762
786 785 782 780 780 776 775 773 768 767 765 763 763 761 760 759 756 757 758 754 742 726 720 721 721 720 719 721 720 717 718 715 711 707 703 703 706 707 706 704 706 707 704 702 704 705 704 698 696 701 702 703 707 706 706 711 715 712 703 696 692 687 688 689 683 684 701 712 702 701 727 740 732 735 741 735 734 739 736 736 742 745 748 752 755 757 759 762
785 783 780 779 778 775 774 770 765 765 763 761 762 760 760 759 757 758 760 759 745 722 711 711 713 711 709 713 712 714 720 712 704 704 702 702 702 702 704 701 699 701 697 697 701 699 695 691 692 698 699 701 705 704 701 704 713 714 700 690 688 685 685 687 685 693 715 719 701 700 721 736 737 736 736 735 736 739 739 738 739 743 748 750 753 757 759 762
783 781 779 778 776 775 773 768 765 764 761 761 760 760 760 759 759 758 760 762 739 709 701 702 703 701 699 702 706 713 715 702 700 704 699 701 700 697 702 699 697 697 688 691 703 695 686 688 691 694 696 700 704 704 696 696 709 708 692 689 692 689 686 683 685 697 707 706 701 699 707 729 746 740 731 732 736 738 741 740 738 741 746 750 753 755 757 761
781 779 777 776 774 774 772 768 766 763 761 762 761 761 759 757 759 756 761 760 720 688 690 692 692 693 691 695 700 703 700 692 699 702 696 699 699 697 701 695 694 694 682 688 702 691 681 685 689 691 695 697 698 697 689 691 703 698 686 690 692 689 687 679 682 692 693 704 717 706 701 723 737 731 728 732 737 741 740 739 738 739 744 750 754 755 758 763
780 778 776 774 772 770 769 768 766 763 761 761 761 762 758 758 760 756 763 754 711 687 689 687 688 690 688 691 696 697 694 688 692 694 693 697 696 695 699 692 688 690 682 682 690 685 678 679 679 686 693 692 691 688 684 689 697 690 684 688 688 688 688 685 691 690 689 712 726 706 699 719 725 722 729 734 737 741 737 734 735 737 743 749 752 754 758 763
778 776 774 773 770 768 767 765 764 763 761 761 761 760 759 758 756 758 764 749 718 704 700 692 692 689 686 691 695 697 695 686 683 689 694 694 694 695 695 688 683 686 683 679 681 677 672 673 672 678 685 683 683 684 682 686 690 686 684 686 690 692 691 694 694 687 699 723 721 699 692 709 723 721 721 723 724 726 729 732 733 733 740 747 751 754 757 761
776 774 773 772 770 768 766 764 763 763 761 760 760 760 760 757 755 758 753 738 728 722 711 704 698 689 686 691 694 696 695 686 679 689 696 692 696 699 696 692 688 687 687 685 682 673 670 677 674 672 676 675 679 684 682 682 683 686 688 688 699 705 702 707 703 697 718 729 712 695 687 699 722 722 710 708 709 711 719 726 729 729 733 741 749 753 755 759
774 772 770 769 768 767 766 764 763 763 761 760 761 760 758 758 759 755 739 728 734 734 724 720 711 696 689 688 691 693 694 688 681 687 694 693 695 698 696 693 688 691 694 690 685 677 673 677 673 671 671 669 678 688 687 684 685 690 692 694 709 722 723 729 725 716 723 720 700 691 692 698 707 707 704 703 703 705 710 715 720 724 728 734 745 750 753 758
771 769 767 766 766 764 764 763 763 763 761 761 761 760 760 762 757 747 737 734 741 739 732 728 722 709 696 691 691 690 691 689 682 684 689 690 694 696 694 686 679 685 689 684 687 688 682 676 670 674 675 670 676 687 693 692 690 694 695 697 710 724 737 745 736 728 728 717 697 686 693 700 696 693 696 696 695 697 701 707 711 716 724 732 741 749 752 756
769 767 765 764 763 762 762 763 763 762 761 761 762 762 765 762 749 740 740 739 739 737 732 729 726 715 699 692 688 683 687 686 679 683 688 689 694 697 694 685 676 675 674 678 687 688 691 688 678 679 682 677 676 680 684 686 689 691 686 690 704 711 727 739 733 732 734 721 704 693 695 701 697 690 686 685 687 690 695 702 705 711 723 732 740 748 753 757
767 765 764 762 762 760 761 761 761 762 761 761 761 760 760 754 744 742 742 740 740 737 731 726 722 714 700 691 684 677 680 681 678 683 687 688 692 692 690 685 676 668 668 682 684 675 687 694 681 679 680 678 682 676 669 679 693 689 678 688 703 697 703 719 720 720 725 723 713 703 697 693 689 683 676 679 685 685 691 700 703 714 727 735 742 747 752 756
766 765 762 761 760 759 760 760 760 761 760 761 761 755 748 745 744 744 743 742 743 741 736 723 711 710 703 690 683 676 674 676 679 684 687 687 687 686 684 679 672 665 664 675 677 671 686 691 677 680 682 676 681 675 666 677 691 688 686 692 692 682 686 707 717 712 720 731 719 702 700 697 694 692 682 682 688 688 693 701 706 718 729 735 741 746 751 754
766 764 762 760 758 758 759 758 759 760 758 760 760 750 741 739 740 741 739 740 742 741 742 729 709 706 701 689 683 677 673 676 680 685 688 687 685 682 681 675 667 663 657 663 670 667 679 687 675 679 686 676 672 673 667 668 676 685 692 689 683 683 683 694 714 722 730 737 719 701 705 706 709 713 697 688 694 694 694 700 708 718 729 736 741 744 750 753
766 764 761 759 757 757 757 758 759 758 757 759 756 746 739 735 734 735 735 737 742 741 741 734 718 708 700 688 680 675 675 681 684 684 685 686 682 678 678 673 667 662 653 656 667 662 667 685 683 676 681 677 670 676 677 669 668 676 680 678 687 703 704 698 709 725 734 739 726 709 705 700 702 709 703 696 698 696 697 702 707 715 727 737 741 743 749 752
764 762 759 757 756 755 756 758 757 756 758 759 750 738 732 728 726 728 730 734 741 741 736 732 725 716 706 690 678 675 677 680 683 682 681 684 680 673 672 671 668 664 656 653 660 661 663 682 692 679 673 677 676 680 687 682 675 674 674 677 685 696 701 698 700 709 721 734 732 721 713 701 690 691 697 698 695 694 698 702 705 712 723 733 738 743 748 751
762 760 757 754 754 755 755 756 756 756 757 755 747 734 724 723 723 723 727 733 737 738 733 730 728 723 714 698 680 674 675 677 681 680 676 677 678 673 668 667 666 664 659 654 656 661 664 677 692 685 672 680 685 681 682 683 682 683 682 683 688 689 689 692 695 694 703 721 728 728 724 703 679 678 687 690 689 691 694 701 708 714 721 730 736 742 747 750
762 757 753 752 754 754 754 755 755 754 754 750 742 730 721 723 725 721 723 728 732 734 732 731 731 725 717 705 685 674 675 677 679 676 672 673 676 675 667 661 663 663 663 662 659 663 669 674 689 694 684 686 688 676 673 675 676 682 682 678 686 692 691 702 708 693 688 703 713 721 726 703 674 671 679 681 685 687 689 701 712 715 722 731 737 742 746 750
760 754 750 752 754 753 753 755 751 749 750 745 734 727 724 725 725 722 721 724 727 731 731 731 730 721 713 703 686 675 677 678 678 675 671 670 671 670 663 658 659 661 665 668 662 659 664 672 687 697 688 682 681 674 673 672 669 675 679 674 679 685 687 702 712 698 690 696 697 704 718 705 678 670 675 679 683 684 686 698 710 716 723 731 738 742 746 750
759 754 751 752 753 752 754 751 742 739 741 736 728 727 729 728 726 724 723 725 727 729 729 726 722 714 708 702 688 676 674 677 678 674 670 670 668 660 655 656 658 659 664 668 662 658 664 673 687 696 686 675 675 674 673 671 670 677 680 674 674 677 678 686 691 689 695 700 699 708 721 711 687 674 675 679 682 683 686 696 708 717 725 732 737 742 746 749
760 755 751 751 752 752 752 746 739 738 736 731 729 730 732 731 730 729 728 727 727 727 726 720 714 710 706 699 687 675 672 679 681 673 668 670 667 656 653 658 660 661 664 665 660 661 671 677 687 700 701 693 691 690 685 679 675 678 680 676 673 670 673 681 680 683 697 699 697 710 722 713 693 681 679 682 685 685 688 697 707 716 726 734 738 742 747 749
762 755 748 748 750 750 747 742 740 742 737 734 735 733 731 730 728 728 728 725 722 721 721 715 709 706 700 694 687 677 672 677 680 673 667 668 664 655 657 663 662 660 661 659 656 660 671 677 683 696 706 708 706 700 692 685 677 676 679 678 675 670 672 680 685 695 706 702 696 702 709 706 696 689 690 689 687 689 692 700 709 715 726 734 737 743 748 749
766 761 754 749 747 744 743 740 739 740 737 738 739 731 727 729 726 724 725 723 719 716 714 711 706 702 698 695 690 681 673 673 675 671 668 669 666 660 662 666 663 660 660 660 660 662 669 676 678 683 688 692 691 682 676 679 682 684 684 678 676 676 672 676 689 700 702 703 703 696 696 704 704 699 698 693 693 700 705 708 713 719 728 735 739 744 748 750
768 768 765 762 754 745 742 740 739 740 737 738 737 728 725 726 723 723 725 722 718 715 712 708 705 705 702 696 689 681 675 674 673 669 669 671 668 665 667 668 666 664 663 664 665 667 676 682 677 675 675 672 671 669 669 677 683 685 684 678 676 678 677 681 691 691 689 702 710 695 693 709 710 700 699 698 703 714 717 716 719 724 731 737 741 746 749 753
771 769 767 768 765 756 750 746 742 740 737 734 730 726 725 722 720 723 724 721 720 721 719 713 707 706 702 695 691 685 679 677 675 672 673 673 671 672 674 671 669 667 666 669 668 667 679 686 676 672 672 665 663 666 667 674 679 679 680 679 678 681 683 686 687 681 683 700 706 696 700 712 706 698 703 708 712 718 722 724 727 730 735 739 743 748 752 755
776 773 767 767 768 763 757 750 744 741 738 734 730 726 725 723 721 721 721 724 727 727 727 724 714 707 699 693 693 689 684 685 684 678 675 674 673 677 680 677 673 669 670 674 670 665 676 686 678 672 673 669 666 664 663 669 676 676 678 678 679 682 683 683 683 679 682 692 692 692 704 708 698 697 708 714 715 718 723 728 731 734 739 742 746 750 753 756
782 780 774 772 770 763 755 748 744 743 739 734 731 728 724 724 724 720 718 724 729 729 732 731 718 708 701 694 695 695 693 696 694 686 682 679 677 680 682 677 674 674 674 676 673 670 680 689 680 672 677 679 671 664 664 671 676 678 678 677 678 681 682 682 683 682 684 688 686 690 703 703 692 695 708 714 714 718 725 730 732 736 740 744 748 752 754 758
785 783 780 779 773 762 754 748 743 742 738 733 731 729 726 723 721 719 716 715 718 722 726 724 717 710 704 699 701 704 703 701 698 693 690 686 681 679 678 673 671 676 676 676 678 679 688 695 683 675 685 688 676 671 671 671 675 681 681 680 681 684 684 683 684 684 686 690 691 696 702 699 691 696 709 713 713 720 727 729 733 736 738 742 747 751 754 758
785 782 779 780 774 762 754 747 741 739 737 733 730 729 726 723 718 719 719 713 710 712 713 712 713 713 711 707 707 709 707 702 697 693 690 687 681 677 675 670 669 675 677 678 683 684 691 696 685 680 693 694 681 677 676 679 689 692 683 677 678 681 684 684 682 682 683 687 695 699 697 691 690 698 709 713 714 719 724 727 730 734 736 740 743 747 752 755